Regional Weather Roundup
Issued by NWS

Home | Current Version | Previous Version | Graphics & Text | Print | Product List | Glossary On
Versions: 1 2 3 4 5 6 7 8 9 10 11 12 13 14 15 16 17 18 19 20 21 22 23 24 25 26 27
000
ASUS45 KTFX 311210
RWRMT
MONTANA REGIONAL WEATHER ROUNDUP
NATIONAL WEATHER SERVICE GREAT FALLS MT
600 AM MDT TUE MAY 31 2016

NOTE: "FAIR" INDICATES FEW OR NO CLOUDS BELOW 12000 FEET WITH NO
SIGNIFICANT WEATHER AND/OR OBSTRUCTIONS TO VISIBILITY.

MTZ001>007-043-311300-
WEST OF THE DIVIDE

CITY           SKY/WX    TMP DP  RH WIND       PRES   REMARKS
KALISPELL      CLEAR     44  38  79 N7        30.20R
MISSOULA       CLEAR     38  33  82 CALM      30.22R
BUTTE          CLEAR     32  26  78 CALM      30.25R
MULLAN PASS    CLEAR     43  27  53 NW5       30.23R
ANACONDA         N/A     34  30  86 SW5       30.25S
DEER LODGE       N/A     37  34  87 W5        30.26R
EUREKA           N/A     37  36  93 CALM      30.24S
HAMILTON         N/A     41  32  70 S7        30.21R
LIBBY            N/A     36  34  93 CALM      30.24R
$$

MTZ008-052>055-311300-
SOUTHWEST MONTANA

CITY           SKY/WX    TMP DP  RH WIND       PRES   REMARKS
BOZEMAN        CLEAR     36  32  85 S3        30.24R
DILLON         CLEAR     37  31  78 E5        30.22R
W YELLOWSTONE  CLOUDY    25  25 100 CALM      30.24R
ENNIS          CLEAR     32  30  93 CALM      30.28R
$$

MTZ009-010-012-014-046-048-049-054-311300-
EAST SLOPES AND CENTRAL MONTANA

CITY           SKY/WX    TMP DP  RH WIND       PRES   REMARKS
CUT BANK       CLEAR     38  36  92 NW9       30.24R WCI  31
GREAT FALLS    CLEAR     41  36  82 NW12      30.24R
MALMSTROM AFB  CLEAR     43  37  82 NW8       30.24R
HELENA         PTCLDY    43  35  73 W8        30.24R
CHOTEAU          N/A     43  37  81 NW9       30.26R
$$

MTZ011-013-016-021-045-047-050-051-311300-
NORTH CENTRAL MONTANA

CITY           SKY/WX    TMP DP  RH WIND       PRES   REMARKS
HAVRE          CLOUDY    47  44  90 NW20G30   30.13R
LEWISTOWN      LGT RAIN  42  38  85 NW24G35   30.16R FOG
N BAR RANCH    CLOUDY    41  37  87 NW28G36   30.10R
CHINOOK          N/A     48  46  93 W13       30.09R
$$

MTZ017>020-022>027-061-062-311300-
NORTHEAST MONTANA

CITY           SKY/WX    TMP DP  RH WIND       PRES   REMARKS
GLASGOW        CLOUDY    51  49  92 N22G30    29.88R
JORDAN           N/A     49  47  93 NW22G30   29.91R
SIDNEY         CLOUDY    50  46  87 W10       29.78S
WOLF POINT     CLOUDY    53  51  93 N10       29.82R
POPLAR           N/A     50  48  93 NW7       29.81S
$$

MTZ028>42-056>058-311300-
SOUTHCENTRAL AND SOUTHEAST MONTANA

CITY           SKY/WX    TMP DP  RH WIND       PRES   REMARKS
BAKER          LGT RAIN  46  43  89 W20G28    29.87F
BILLINGS       PTCLDY    48  34  58 W16       30.12R
LIVINGSTON     CLEAR     42  33  70 W12       30.22R
MILES CITY     LGT RAIN  48  45  89 W26G37    29.90F
FORSYTH          N/A     48  43  81 W20G32    29.96S
$$

REGIONAL REPORTS...DAKOTAS

CITY           SKY/WX    TMP DP  RH WIND       PRES   REMARKS
WILLISTON      LGT RAIN  52  49  89 W7        29.74F
MINOT          LGT RAIN  57  54  89 W7        29.66F
DICKINSON      LGT RAIN  45  43  93 W17       29.78F
BEACH          CLOUDY    46  46 100 W15G21    29.85F
CROSBY         LGT RAIN  52  52 100 N16       29.75F
WATFORD CITY   CLOUDY    48  48 100 W14       29.75F
BISMARCK       CLEAR     49  44  83 W17       29.78F
GRAND FORKS    CLOUDY    60  58  92 SE13      29.69S
FARGO          CLOUDY    62  58  86 S13       29.72F
BUFFALO SD       N/A     47  42  83 W33G40    29.84F
RAPID CITY     CLEAR     44  34  67 SW7       29.99S
$$

REGIONAL REPORTS...WYOMING/IDAHO/WASHINGTON

CITY           SKY/WX    TMP DP  RH WIND       PRES   REMARKS
GILLETTE       CLEAR     41  36  82 W12       30.07R
SHERIDAN       CLEAR     44  33  65 NW9       30.08F
BUFFALO WY     CLEAR     42  31  64 SE8       30.10S
CODY           CLEAR     36  32  87 N3        30.17R
YELLOWSTONE LA   N/A     26  22  84 NW3       30.27R
IDAHO FALLS    CLEAR     37  31  78 N7        30.15R WCI  32
SALMON         CLEAR     36  27  69 CALM      30.20R
BOISE          CLEAR     49  37  63 SW3       30.10R
SPOKANE        PTCLDY    48  35  60 E3        30.17R
$$

REGIONAL REPORTS...ALBERTA

CITY           SKY/WX    TMP DP  RH WIND       PRES   REMARKS
EDMONTON       MOCLDY    43  37  81 W5        30.22S
CALGARY        PTCLDY    39  37  93 S3        30.24F
LETHBRIDGE     PTCLDY    41  39  93 W12       30.24S
MEDICINE HAT   LGT RAIN  48  46  93 NW9G18    30.16R
WATERTON GATE    N/A     39  37  93 W1          N/A
MILK RIVER       N/A     39  37  93 NW10        N/A
$$

REGIONAL REPORTS...SASKATCHEWAN

CITY           SKY/WX    TMP DP  RH WIND       PRES   REMARKS
SWIFT CURRENT  MOCLDY    48  46  93 NW15      30.02R FOG
REGINA         LGT RAIN  52  50  93 N14       29.90R
SASKATOON      MOCLDY    50  50 100 N8        30.06R
CYPRESS HILLS    N/A     43  43 100 N8G17       N/A
VAL MARIE        N/A     50  48  93 N17G24      N/A
ROCKGLEN         N/A     48  48 100 N21G31      N/A
ASSINIBOIA       N/A     48  46  93 N9          N/A
$$




USA.gov is the U.S. government's official web portal to all federal, state and local government web resources and services.